METEOR 2-20

Satellite information

Favourite Embed

Satellite Type and Status

PAYLOADIN ORBIT

Key statistics

Satellite METEOR 2-20 at a glance.

Uptime

12639

Days in orbit

Revolutions

≈ 13.8

Per day

Orbit

LEO

Low Earth Orbit

Inclination

82.5

Latest

Satellite identification and parameters

Extended collection of information and parameters for METEOR 2-20.

Object identification

Identified? True

Debris? False

Object name: METEOR 2-20

International designator: 1990-086A

Object number (NORAD): 20826

Object ID (CCSDS): 20826

Country: COMMONWEALTH OF INDEPENDENT STATES (CIS)

Current information (Y/N): Y

RCS size: LARGE

Orbital parameters

Period: 104.015 minutes

Inclination: 82.5243 deg

SMA: 7326.38 km

Apoapsis: 959.182 km

Periapsis: 937.309 km

RAAN: 162.293 deg

Eccentricy: 0.0014927

Argument of periapsis: 89.101 deg

Mean anomaly: 271.1861 deg

Mean motion: 13.84422228 rev/day

Mean motion (dot): 0.00000049 rev/day2

B* drag term: 0.000029988 1/REarth

Two-line elements (TLE)

Creation date: May 6, 2025, 3:54 a.m.

Reference frame: TEME

Reference center: EARTH

Epoch: May 5, 2025, 7:55 p.m. UTC

TLE line 0: 0 METEOR 2-20

TLE line 1: 1 20826U 90086A 25125.82990700 .00000049 00000-0 29988-4 0 9994

TLE line 2: 2 20826 82.5243 162.2930 0014927 89.1010 271.1861 13.84422228747953

Live tracking on map

Real-time ground track for satellite METEOR 2-20.

In-orbit conjunctions

A list of the most updated potential collisions computed for object METEOR 2-20.

Target Orbit TCA Probability of collision Miss distance Type
BREEZE-M DEB (TANK) MEO 2025-04-22 07:26:57 0.0003069281 657.0 (m) DEBRIS
SL-14 DEB LEO 2024-08-09 11:47:57 0.00203016 117.0 (m) DEBRIS

Associated space launch

Second generation soviet meteorological satellite

METEOR 2-20 was lifted into orbit during the mission ‘Tsiklon-3 | Meteor-2 20’, on board a Tsiklon-3 space rocket.

The launch took place on Sept. 28, 1990, 7:30 a.m. from 32/1.

For more information about the launch, click the button.

Launch to space Tsiklon-3 | Meteor-2 20
Tsiklon-3 | Meteor-2 20

Agency: N/A

Status: Launch Successful

Launch date: Sept. 28, 1990, 7:30 a.m. UTC

Rocket: Tsiklon-3

Launch pad: 32/1

Location: Plesetsk Cosmodrome, Russian Federation

...

Latest news about this satellite

There are no fresh news available about this satellite. Check back as we update our databases every day.


Newsletter sign-up

Weekly statistics, charts and insights to help you stay on top of the space industry.